Погода в Куйтуне

Россия / Иркутская область     54°19′25″N   101°30′29″E
темп.,
°C
ветер,
м/с
пор.,
м/с
влажн.,
%
обл.,
%
осадки,
мм/ч
давл.,
гПа
погр.,
м
14 мая, пт
пт1423:00+4св22502 0.0 102020
02:00+2ю22610 0.0 102111
05:00+1ююв22660 0.0 102013
08:00+6юв34510 0.0 1019264
11:00+10юв56350 0.0 10171180
14:00+14ююв44245 0.0 10141680
17:00+15ююв34185 0.0 10121825
20:00+12юв373463 0.0 1011160
15 мая, сб
сб1523:00+7ю3104468 0.0 1012160
02:00+7сз7148399 0.0 1014627
05:00+5зсз6128199 0.4 10181126
08:00+5зсз51259100 0.4 10211312
11:00+9зсз61241100 0.0 10191753
14:00+11з71245100 0.0 10161933
17:00+13зсз51349100 0.0 10141941
20:00+10зсз61573100 0.4 10151436
16 мая, вс
вс1623:00+10зюз397470 0.0 1015317
02:00+10зсз71476100 0.5 10141086
05:00+9зюз41379100 0.5 1012565
08:00+8з41392100 4.9 1013728
11:00+9з51291100 3.2 1013952
14:00+11зсз41087100 3.4 1013777
17:00+11сз3984100 0.2 1011806
20:00+10юв1191100 0.3 100922
17 мая, пн
пн1723:00+9вюв2297100 1.3 100646
02:00+10сз41191100 4.9 1004718
05:00+5ссз51191100 0.1 1009698
08:00+4ссз3894100 0.1 1012773
11:00+7сз466794 0.1 10121177
14:00+10зсз5654100 0.1 10121633
17:00+10зсз575276 0.0 10111564
20:00+9з596144 0.0 1012680
18 мая, вт
вт1823:00+5з41079100 0.0 1014267
02:00+5з3886100 0.0 1013195
05:00+4з3689100 0.0 1013138
08:00+7зюз3571100 0.0 1012790
11:00+8з3468100 0.1 10101027
14:00+8юз3380100 0.4 1008864
17:00+7вюв2389100 0.9 1005180
20:00+6в2397100 5.7 1004153